Theta_e
321 320 320 319 320 320 320 319 319 319 320 320 320 320 321 322 321 321 321 322 322 321 321 321 320 319 319 319 318 318 317 317 317 317 316 316 316 316 316 315 316 316
319 320 319 319 318 318 319 319 319 319 320 320 320 321 321 320 320 321 321 321 321 321 321 321 320 320 319 319 318 318 317 317 316 317 316 316 316 316 316 316 316 317
314 316 318 318 319 319 319 319 319 319 319 320 320 320 320 319 320 320 321 321 321 321 321 321 320 320 319 319 318 318 317 317 316 317 316 316 316 316 316 316 316 317
310 314 317 318 319 319 319 317 317 318 317 317 317 318 319 319 319 319 320 317 320 321 321 320 320 320 319 319 318 318 317 317 317 317 316 316 316 316 316 316 316 317
307 309 312 315 317 317 316 316 316 316 316 318 317 316 316 316 316 318 318 319 319 320 320 319 320 320 319 318 318 317 317 317 317 316 316 316 316 315 317 317 316 316
303 304 307 311 312 312 315 314 315 314 315 314 316 316 315 315 315 315 316 317 317 318 319 319 319 319 319 318 317 317 317 316 316 316 316 316 317 317 317 317 317 316
302 303 304 304 308 309 310 311 311 312 313 314 311 312 313 313 313 314 315 315 316 316 317 318 318 318 318 318 317 316 317 316 315 315 316 316 317 316 317 317 316 316
301 301 302 303 304 305 306 306 306 307 308 307 309 312 309 312 313 313 311 313 314 315 315 316 317 317 317 316 316 316 316 316 316 315 315 315 316 315 316 316 316 315
299 300 300 301 302 302 302 302 303 304 303 305 306 306 305 307 308 308 310 310 311 312 313 314 315 315 315 315 315 316 315 315 315 314 314 314 314 314 315 315 315 315
297 297 297 297 298 298 298 299 300 300 301 303 303 302 305 304 304 306 306 306 307 307 308 310 311 311 312 313 315 315 314 315 313 313 314 314 313 313 313 313 314 314
295 295 295 295 295 295 295 296 296 296 298 299 300 302 302 301 303 301 303 302 305 306 307 306 307 308 311 311 312 312 313 313 313 313 313 313 313 313 308 312 313 313
292 292 292 292 292 293 293 293 294 294 295 295 296 298 297 297 298 299 298 301 300 302 301 302 303 304 305 307 308 309 309 310 310 310 311 312 312 313 313 312 312 313
290 290 290 290 290 290 291 292 292 290 292 292 290 291 292 293 293 295 293 294 300 299 300 300 302 302 305 304 305 306 308 307 306 307 309 309 309 310 311 312 311 311
289 287 289 290 290 291 292 291 291 291 290 289 289 291 290 290 291 293 291 290 293 295 297 298 298 299 300 302 304 305 307 307 307 307 306 307 308 309 309 309 310 310
288 289 290 290 290 290 290 290 290 289 289 289 289 289 290 288 291 292 290 292 292 291 292 293 297 298 299 298 301 304 306 309 310 309 306 306 307 306 305 305 306 307
288 288 288 289 290 290 288 288 288 288 288 289 289 288 288 288 288 289 289 289 290 291 290 293 294 297 295 293 294 299 302 304 306 305 304 304 305 305 305 305 305 306
289 289 288 289 288 288 287 287 288 287 287 287 287 287 287 287 287 289 288 288 288 289 290 291 292 294 292 295 296 295 295 299 300 301 301 298 300 302 303 304 305 304
288 288 288 288 288 288 287 286 286 286 287 286 287 287 287 286 287 287 287 287 288 287 288 288 289 291 294 294 295 295 294 293 294 295 297 295 294 296 299 300 301 302
286 287 287 287 287 287 287 287 287 287 287 287 287 286 285 286 286 286 287 287 287 288 288 288 288 291 293 294 294 294 295 293 293 293 293 292 292 292 293 295 296 296
285 285 285 285 285 285 286 286 286 287 286 286 286 286 286 286 286 286 286 287 287 287 287 287 288 290 293 293 293 294 294 294 292 292 291 291 291 291 291 292 292 293
284 284 285 285 285 284 284 285 285 285 285 285 286 286 287 287 287 287 287 286 286 286 286 287 289 291 293 293 293 293 294 293 290 290 288 288 289 289 290 291 292 292
284 284 283 283 284 284 284 285 285 284 285 284 284 285 285 285 285 285 286 287 287 287 287 288 289 291 291 292 292 293 293 291 288 288 288 288 289 289 290 290 290 290
282 283 283 282 282 283 283 283 284 285 285 284 284 285 285 285 285 284 285 285 286 285 286 287 288 289 290 291 291 292 291 288 288 287 287 288 289 289 289 290 290 291
283 282 283 283 282 282 283 282 283 283 283 283 283 283 283 284 284 285 285 284 285 286 285 286 287 288 289 290 291 292 291 288 287 287 288 288 289 289 289 290 290 288
284 284 283 283 284 284 284 284 284 283 283 282 283 283 284 283 283 284 283 284 284 284 284 285 286 287 288 290 291 291 290 286 286 286 287 288 288 288 287 288 288 287
283 283 283 284 284 285 285 284 283 284 284 284 284 284 284 283 283 284 284 284 283 283 285 284 285 286 287 289 290 291 291 288 285 284 286 287 287 286 287 287 286 286
Wind_Speed
7 5 7 8 9 9 9 9 8 8 9 8 9 9 9 9 8 9 10 10 11 11 11 11 10 10 10 10 10 9 9 10 10 8 9 10 11 11 12 12 11 11
8 7 7 7 7 7 7 7 7 8 10 9 8 8 7 7 7 8 9 10 10 11 11 10 10 10 10 9 9 10 10 9 11 8 9 12 11 11 13 13 11 11
5 6 7 8 9 9 9 8 8 9 9 8 7 6 6 5 7 7 9 9 10 11 10 10 10 10 10 10 9 10 10 11 12 9 9 12 11 11 11 10 9 11
5 6 7 8 8 9 8 7 7 7 5 6 6 7 7 6 6 7 8 9 9 9 9 9 10 10 10 10 9 9 11 11 10 8 9 9 9 9 10 8 9 9
4 4 4 5 6 6 5 6 7 6 6 7 5 5 6 6 6 6 7 7 8 9 8 9 9 9 9 9 9 9 10 9 8 7 8 10 9 8 9 8 9 11
2 2 3 4 4 4 5 4 5 4 5 5 7 6 5 5 5 6 7 7 7 8 8 8 8 9 8 9 8 9 9 8 8 8 10 11 10 8 8 8 9 11
4 4 4 2 1 1 3 4 4 4 5 6 4 4 5 5 5 6 6 7 7 7 8 8 8 8 8 8 8 9 9 9 7 7 9 10 9 9 8 8 9 11
4 4 4 5 5 6 4 4 3 3 3 3 4 4 3 5 5 6 5 5 6 7 7 7 7 7 6 6 8 8 9 7 7 8 9 10 8 10 9 7 9 11
5 6 5 5 6 5 5 5 5 4 4 2 2 3 2 2 3 4 4 4 4 5 5 5 6 6 6 6 7 8 9 8 7 8 9 9 10 10 9 8 9 11
7 5 7 6 6 4 5 4 4 4 4 4 4 4 5 4 2 1 1 3 3 4 4 4 4 5 5 6 8 7 8 8 7 8 9 9 10 10 9 8 10 11
7 7 7 7 6 5 5 5 5 4 5 5 5 5 5 5 5 5 4 3 2 3 3 3 4 4 4 5 5 5 7 7 7 7 8 9 9 9 9 9 10 11
7 7 7 6 6 5 5 4 5 5 5 5 5 5 4 4 5 4 4 4 4 3 3 3 3 2 3 4 4 4 5 5 5 6 7 7 8 8 8 8 9 11
7 6 6 5 6 6 5 5 5 4 5 5 4 4 5 5 5 4 4 3 4 3 4 3 3 2 2 3 3 4 4 5 5 5 6 6 7 7 7 7 8 9
6 5 5 6 6 6 7 6 6 6 5 4 5 6 6 5 5 6 4 3 3 4 4 4 3 3 3 3 3 3 4 4 5 6 6 6 6 7 7 7 8 9
5 5 5 6 6 7 7 8 8 7 6 6 6 6 6 5 5 5 6 6 5 5 5 5 5 5 4 4 5 5 3 4 5 5 5 6 6 6 6 6 7 8
5 5 6 5 7 7 6 5 6 7 7 7 7 6 6 5 6 5 5 6 6 6 5 5 4 3 6 9 5 4 5 5 5 4 4 5 5 6 6 5 7 6
4 5 5 7 6 5 5 5 5 5 5 6 6 6 6 6 6 7 7 6 6 6 7 6 5 4 9 8 9 7 3 4 4 5 4 4 4 5 7 7 7 6
4 4 6 5 5 6 5 5 4 4 5 5 5 7 6 5 6 5 5 5 5 5 5 5 6 8 10 10 10 9 7 4 3 3 4 4 4 4 5 6 7 8
4 5 5 5 5 4 4 4 5 5 6 7 7 5 4 5 5 5 5 5 5 6 6 5 5 8 9 10 10 10 10 7 4 3 4 4 4 4 5 6 6 7
4 4 4 4 3 3 4 4 4 5 4 4 4 4 5 5 5 5 5 5 5 5 5 5 5 7 9 10 10 9 9 6 4 4 4 4 5 5 5 5 5 6
4 4 4 4 4 4 4 4 3 3 3 3 4 4 5 6 6 6 5 5 5 5 6 6 5 9 10 10 10 10 10 7 4 3 4 4 4 4 5 5 5 5
5 4 4 4 5 5 5 6 5 5 5 4 3 3 2 2 3 3 5 6 6 5 6 7 6 8 10 11 11 10 9 5 4 4 4 5 5 5 5 6 5 5
3 4 4 3 2 3 4 4 5 7 7 5 6 6 6 5 4 4 4 4 5 4 5 7 8 8 9 11 11 11 7 4 4 4 4 5 6 4 5 5 5 5
4 4 4 4 4 4 4 4 4 3 3 3 4 5 6 5 4 6 5 4 5 5 4 6 8 8 9 10 10 10 7 5 5 5 6 6 8 5 4 5 6 10
6 5 5 5 6 6 5 6 6 5 5 3 4 4 5 4 4 5 4 4 4 4 7 6 7 9 10 9 9 10 8 5 5 5 8 8 7 8 4 4 5 6
5 5 5 5 6 6 6 5 4 5 5 5 5 5 6 5 5 5 6 5 3 4 4 4 6 6 6 9 8 8 9 6 4 4 8 10 8 6 9 5 4 5
Wind_Direction
233 225 227 225 231 230 231 225 222 223 226 224 226 227 221 224 211 210 215 218 219 222 221 220 218 220 222 219 217 221 225 226 228 222 220 223 229 228 233 231 227 229
228 223 225 230 237 233 235 228 226 220 230 225 227 229 228 220 215 209 215 218 220 224 222 220 218 218 219 218 217 219 226 224 228 216 220 224 229 227 233 233 231 233
242 232 228 227 230 232 229 225 223 226 229 231 230 230 233 219 221 213 218 217 220 224 223 221 220 218 217 217 215 217 224 225 228 220 216 227 227 228 234 232 231 233
249 239 234 232 230 235 231 226 231 235 239 244 234 227 222 225 219 220 221 219 222 225 223 221 222 220 217 217 215 221 226 229 230 221 224 234 234 231 235 231 233 236
255 249 246 250 247 245 239 228 235 232 230 236 246 240 232 232 224 226 222 222 222 228 225 223 223 224 218 218 215 223 227 231 230 217 224 235 234 227 237 233 237 241
339 296 265 242 247 245 248 240 245 240 241 248 241 238 236 233 230 228 226 225 223 226 228 226 224 224 218 218 215 223 226 228 226 212 224 235 239 227 232 234 238 244
356 4 359 330 291 256 228 244 247 239 238 237 251 246 228 233 228 228 228 226 227 226 226 226 224 225 217 214 216 224 227 228 223 214 223 235 238 238 233 232 236 244
10 10 12 24 44 26 24 2 339 313 296 303 255 265 241 237 228 229 226 226 226 229 228 229 229 228 220 211 219 225 230 223 224 218 224 234 232 242 236 229 236 243
30 25 21 34 42 28 29 19 11 13 3 17 336 302 313 278 281 284 264 243 231 231 229 230 228 227 220 214 222 226 228 227 220 219 226 232 234 238 236 229 235 242
33 19 35 32 40 21 28 12 11 17 10 33 16 19 18 350 355 326 315 291 277 268 246 235 232 228 224 218 225 224 228 230 222 221 226 231 235 238 236 230 235 244
26 22 30 28 28 23 26 19 18 16 22 24 13 24 15 12 17 15 20 19 339 302 298 284 269 261 248 241 236 232 230 232 228 224 227 232 235 235 233 230 235 241
28 25 22 15 11 16 17 23 27 30 21 24 21 18 19 34 25 19 24 1 1 341 322 309 294 278 263 267 267 259 254 249 244 237 237 238 240 239 236 231 236 242
33 26 22 15 7 359 0 16 28 27 36 26 8 33 30 15 10 13 16 11 354 353 353 341 332 327 291 269 261 259 257 259 259 253 251 247 246 246 245 242 242 246
27 25 27 21 16 12 6 4 9 20 29 28 33 36 27 19 6 359 343 17 9 1 345 355 349 346 330 310 292 279 272 264 253 256 258 256 255 253 249 248 247 248
20 25 27 30 30 29 22 12 7 4 9 24 33 26 22 10 2 14 15 9 2 8 359 2 14 357 352 350 341 329 310 295 289 277 270 268 267 264 260 258 257 255
24 22 24 27 32 28 20 12 12 8 11 16 19 18 16 11 8 14 25 14 1 355 360 3 1 355 360 353 354 342 330 325 316 308 297 291 292 291 286 278 274 275
43 28 24 30 18 20 13 14 9 7 17 18 16 16 15 4 7 12 7 4 3 355 351 353 347 343 340 346 347 350 349 326 315 306 303 302 301 298 295 296 292 285
41 41 39 25 19 14 5 355 354 8 19 18 16 16 6 3 16 5 354 353 352 353 350 340 335 330 340 343 344 343 345 337 306 298 299 296 295 292 289 292 293 294
31 38 36 27 15 2 354 356 1 8 14 12 10 349 357 16 359 360 354 347 352 350 342 332 326 323 332 336 339 339 340 349 331 319 314 305 302 295 294 294 296 299
37 37 34 15 356 353 353 1 9 9 356 353 350 358 11 0 359 359 350 353 348 339 330 323 318 319 330 332 333 332 331 339 308 309 300 293 290 286 282 281 280 285
30 31 20 4 358 355 353 356 356 339 354 356 3 1 358 355 347 348 343 340 337 334 329 325 315 320 329 329 329 329 328 333 315 305 294 281 275 268 268 270 275 274
18 14 9 3 356 354 355 349 344 342 340 339 350 343 333 329 324 328 337 335 329 330 332 324 320 325 327 328 327 326 329 322 317 304 299 290 286 282 279 278 276 273
16 12 358 352 340 344 349 343 341 337 334 342 349 340 343 343 338 326 310 312 314 316 318 310 311 320 325 323 323 325 334 324 316 308 292 290 279 268 265 265 267 267
357 7 358 354 356 356 338 326 314 304 309 322 328 319 321 309 309 317 314 310 306 307 304 306 304 309 316 312 314 318 326 320 316 317 308 301 299 282 269 265 254 255
353 358 356 351 349 342 340 336 333 321 307 314 313 308 299 297 295 288 286 277 268 272 292 292 292 305 312 309 312 319 326 327 323 322 314 308 309 304 269 253 262 245
349 348 343 345 337 331 332 325 313 324 332 332 324 323 321 316 303 300 311 302 266 256 267 268 284 285 290 294 302 308 312 313 321 329 313 309 308 300 310 289 237 243